TIME,DELAY(SENSOR),PRES,OXYGEN,RAWTEMP,T(OPTODE),TCPHASE,FLUOR,BETA(BETA700),BETA(BETA412),BETA(BETA440),CDOM,C(CSC),ED(ED412.20),ED(ED444.00),ED(ED489.60),ED(ED554.30),LU(LU412.10),LU(LU443.90),LU(LU489.70),LU(LU554.70),COMP,TILTX,TILTY,CHECK
1361501956,5811,859.5300292968750000,32.8046188354492200,558.8787231445312000,4.5206432342529300,56.6241912841796900,55,100,100,78,82,15531,0,0,0,0,2147122989,2147770048,2147572818,2147564854,1057,2,13,7268
1361505552,5808,928.2299804687500000,38.4583206176757800,565.8411254882812000,4.3047280311584470,55.8060989379882800,55,99,100,79,82,15528,0,0,0,0,2147126528,2147773202,2147570304,2147568475,1767,2,13,35168
1361509152,5809,940.9699707031250000,38.0866088867187500,567.2780761718750000,4.2601127624511720,55.8776512145996100,55,98,99,78,83,15529,0,0,0,0,2147122971,2147775360,2147568941,2147571885,131,2,13,57587
1361512752,5809,973.7800292968750000,40.4717903137207000,568.3013916015625000,4.2283339500427250,55.5263710021972660,55,98,100,78,81,15526,0,0,0,0,2147120996,2147776603,2147573467,2147568210,3439,2,13,59949
1361516352,5812,968.9899902343750000,41.0803794860839840,569.4904785156250000,4.1913928985595700,55.4477806091308600,54,98,100,78,81,15523,0,0,0,0,2147123419,2147771666,2147569453,2147571629,15,3,13,60138
1361519952,5810,972.7199707031250000,41.6716003417968750,569.9694213867188000,4.1765141487121580,55.3709297180175800,55,101,99,78,82,15522,0,0,0,0,2147122340,2147778459,2147574811,2147570678,197,2,13,62590
1361523552,5811,979.3499755859375000,41.4367218017578100,570.2108154296875000,4.1690077781677250,55.4065818786621100,54,100,100,78,81,15526,0,0,0,0,2147124937,2147769042,2147569325,2147568978,3448,2,13,32421
1361527152,5807,982.3099975585938000,40.8782691955566400,569.7822875976562000,4.1823267936706540,55.4838294982910160,55,98,99,78,83,15525,0,0,0,0,2147124178,2147770386,2147568676,2147569435,308,2,13,61799
1361530752,5811,977.6099853515625000,40.6912803649902340,570.1737060546875000,4.1701622009277340,55.5168800354003900,55,121,99,78,82,15524,0,0,0,0,2147126848,2147767241,2147575542,2147570075,25,2,13,45093
1361534352,5808,978.5000000000000000,41.2943000793457000,570.4213256835938000,4.1624679565429690,55.4312782287597660,56,98,100,77,82,15524,0,0,0,0,2147125851,2147774491,2147574555,2147572937,3478,2,13,52541
1361537952,5807,979.8900146484375000,41.2597312927246100,570.6744995117188000,4.1545982360839840,55.4367599487304700,55,106,100,78,82,15525,0,0,0,0,2147123492,2147771657,2147573394,2147567981,410,2,13,26674
1361541552,5812,986.6400146484375000,41.1783294677734400,570.0985717773438000,4.1724991798400880,55.4394111633300800,54,97,100,78,81,15527,0,0,0,0,2147119753,2147772352,2147574747,2147567058,3511,2,13,149
1361545152,5808,977.2899780273438000,40.6466217041015600,570.3395996093750000,4.1650071144104000,55.5248107910156250,55,99,101,77,80,15524,0,0,0,0,2147123702,2147767945,2147570212,2147570148,477,2,13,3997
1361548752,5809,976.9099731445312000,41.3889617919921900,571.4868774414062000,4.1293449401855470,55.4220581054687500,55,100,100,78,83,15525,0,0,0,0,2147125632,2147767716,2147573778,2147566930,3494,2,13,53151
1361552352,5809,977.3800048828125000,41.6147193908691400,570.8787841796875000,4.1482467651367190,55.3885688781738300,55,98,100,78,81,15521,0,0,0,0,2147124946,2147773257,2147571648,2147567588,3447,2,13,62776
1361555952,5811,983.5800170898438000,41.4141311645507800,570.8787841796875000,4.1482467651367190,55.4175415039062500,55,97,99,78,82,15522,0,0,0,0,2147122724,2147771675,2147574070,2147569307,149,3,13,49649
1361559552,5809,989.7000122070312000,41.4065017700195300,571.0156860351562000,4.1439909934997560,55.4155197143554700,55,99,101,78,84,15523,0,0,0,0,2147123968,2147770614,2147576292,2147574153,3518,2,13,8600
1361563152,5809,980.4000244140625000,41.1179008483886700,570.7899169921875000,4.1510138511657715,55.4596786499023440,55,98,100,77,82,15524,0,0,0,0,2147124251,2147771849,2147572342,2147569910,127,2,13,65086
1361566752,5811,987.5200195312500000,41.4635581970214840,570.4525146484375000,4.1614990234375000,55.4064292907714840,55,98,99,78,81,15523,0,0,0,0,2147125988,2147770880,2147573056,2147568804,336,2,13,16217
1361570352,5811,975.6500244140625000,41.6993484497070300,571.5559082031250000,4.1272010803222660,55.3804206848144500,55,98,101,77,81,15522,0,0,0,0,2147122624,2147771794,2147571721,2147566985,185,2,13,49301
1361573952,5811,986.6099853515625000,42.1197586059570300,571.5134277343750000,4.1285209655761720,55.3188781738281250,55,99,100,78,82,15525,0,0,0,0,2147125138,2147773403,2147572388,2147569499,55,2,13,8620
1361577552,5810,983.8400268554688000,42.0142402648925800,571.4837036132812000,4.1294441223144530,55.3344383239746100,55,99,99,78,82,15522,0,0,0,0,2147126235,2147774281,2147572022,2147568274,448,2,13,13296
1361581152,5808,988.1900024414062000,42.0345001220703100,571.5026855468750000,4.1288552284240720,55.3293190002441400,55,100,100,78,82,15522,0,0,0,0,2147123035,2147774537,2147578578,2147568420,264,2,13,32620
1361584752,5808,985.9000244140625000,41.5561904907226560,571.5487060546875000,4.1274237632751465,55.3987503051757800,55,97,98,79,82,15514,0,0,0,0,2147123510,2147771556,2147571300,2147570459,542,2,13,48778
1361588352,5809,981.7800292968750000,41.6488800048828100,571.5653076171875000,4.1269068717956540,55.3886909484863300,55,100,100,77,81,15509,0,0,0,0,2147121828,2147767533,2147572361,2147568896,387,2,13,49653
1361591952,5808,984.6400146484375000,41.5641899108886700,570.8948974609375000,4.1477489471435550,55.3947486877441400,54,97,99,77,82,15514,0,0,0,0,2147125778,2147766482,2147571648,2147567661,3226,2,13,10903
1361595552,5808,991.7999877929688000,41.5098686218261700,570.5634765625000000,4.1580471992492680,55.3940582275390600,54,98,100,78,83,15509,0,0,0,0,2147126006,2147767085,2147574180,2147571456,3155,2,13,59382
1361599152,5810,992.2899780273438000,40.9642410278320300,570.0645751953125000,4.1735529899597170,55.4759407043457000,54,98,99,77,83,15505,0,0,0,0,2147122614,2147775323,2147577088,2147566564,3187,2,13,5748
1361602752,5814,993.1699829101562000,40.8169097900390600,570.2025756835938000,4.1692638397216800,55.4991798400878900,55,95,101,77,81,15499,0,0,0,0,2147124452,2147774592,2147578121,2147567917,95,2,13,50873
1361606352,5811,991.2000122070312000,40.2015609741210940,570.3635864257812000,4.1642608642578125,55.5873908996582000,54,98,100,78,82,15501,0,0,0,0,2147128996,2147770102,2147573366,2147570011,3507,2,13,7169
1361609952,5809,990.2000122070312000,41.4470787048339840,570.6469116210938000,4.1554579734802250,55.4060897827148440,54,96,100,78,82,15505,0,0,0,0,2147125174,2147771922,2147576512,2147571227,3555,2,13,64751
1361613552,5810,991.4000244140625000,40.9859886169433600,570.1060791015625000,4.1722640991210940,55.4713516235351560,54,98,101,78,82,15509,0,0,0,0,2147124717,2147770907,2147572425,2147570029,221,3,13,56551
1361617152,5812,998.0100097656250000,40.2240180969238300,569.9721069335938000,4.1764278411865230,55.5823593139648440,54,98,99,77,82,15508,0,0,0,0,2147126875,2147770998,2147572288,2147570459,106,2,13,25456
1361620752,5808,993.6599731445312000,39.8669395446777340,569.7656860351562000,4.1828398704528810,55.6335983276367200,55,100,102,92,83,15497,0,0,0,0,2147125997,2147771894,2147574710,2147569133,103,3,13,37831
1361624352,5809,988.5999755859375000,41.2875518798828100,570.9708862304688000,4.1453838348388670,55.4317283630371100,56,97,101,78,82,15500,0,0,0,0,2147127753,2147773933,2147575881,2147570678,122,2,13,37487
1361627952,5811,980.2800292968750000,41.3870582580566400,571.2979736328125000,4.1352162361145020,55.4256896972656250,55,98,100,77,82,15499,0,0,0,0,2147124480,2147767387,2147567524,2147569115,76,2,13,36934
1361631552,5808,980.1799926757812000,42.2767791748046900,572.4063110351562000,4.1007580757141110,55.3069992065429700,54,99,100,78,82,15499,0,0,0,0,2147124251,2147769792,2147566802,2147572013,492,2,13,5758
1361635152,5809,987.2399902343750000,42.4859085083007800,572.1840820312500000,4.1076660156250000,55.2736816406250000,55,98,100,78,82,15496,0,0,0,0,2147127506,2147774016,2147572178,2147570596,106,2,13,14572
1361638752,5809,990.9500122070312000,42.1759300231933600,571.6032104492188000,4.1257309913635250,55.3146095275878900,55,97,100,78,81,15497,0,0,0,0,2147123373,2147772132,2147569636,2147570870,3160,2,13,31519
1361642352,5810,980.2199707031250000,41.7231903076171900,571.8693237304688000,4.1174559593200680,55.3822593688964840,55,99,99,77,82,15496,0,0,0,0,2147122349,2147772772,2147575826,2147565741,3572,2,13,56966
1361645952,5807,986.3900146484375000,41.8687591552734400,571.9307250976562000,4.1155490875244140,55.3619003295898440,56,97,100,79,82,15496,0,0,0,0,2147121874,2147774390,2147577124,2147569408,3474,2,13,3201
1361646956,5812,984.0000000000000000,41.8367309570312500,571.8101196289062000,4.1192970275878910,55.3612403869628900,56,99,100,78,82,15496,0,0,0,0,2147121856,2147775497,2147573942,2147566089,22,3,13,15301
